| time (UTC) | temp F | wind direction | speed MPH | gust MPH | rain 1hr in | rain 24hr in | rain mn in | humidity % | barometer mb |
| 20260507124540 | 47 | 0 | 0.0 | 0.0 | 0.00 | 0.00 | 0.00 | 81 | 1016.9 |
| 20260507123047 | 46 | 158 | 0.0 | 1.0 | 0.00 | 0.00 | 0.00 | 82 | 1017.0 |
| 20260507121549 | 44 | 0 | 0.0 | 1.0 | 0.00 | 0.00 | 0.00 | 86 | 1017.1 |
| 20260507120043 | 42 | 0 | 0.0 | 0.0 | 0.00 | 0.00 | 0.00 | 88 | 1017.2 |
| 20260507114544 | 41 | 0 | 0.0 | 0.0 | 0.00 | 0.00 | 0.00 | 89 | 1017.2 |
| 20260507113049 | 41 | 0 | 0.0 | 0.0 | 0.00 | 0.00 | 0.00 | 88 | 1017.2 |
| 20260507111546 | 41 | 0 | 0.0 | 0.0 | 0.00 | 0.00 | 0.00 | 88 | 1017.0 |
| 20260507110057 | 41 | 0 | 0.0 | 0.0 | 0.00 | 0.00 | 0.00 | 88 | 1016.9 |
| 20260507104550 | 41 | 0 | 0.0 | 0.0 | 0.00 | 0.00 | 0.00 | 89 | 1016.7 |
| 20260507103106 | 41 | 0 | 0.0 | 0.0 | 0.00 | 0.00 | 0.00 | 89 | 1016.5 |
| 20260507101547 | 41 | 0 | 0.0 | 0.0 | 0.00 | 0.00 | 0.00 | 89 | 1016.4 |
| 20260507094547 | 42 | 0 | 0.0 | 0.0 | 0.00 | 0.00 | 0.00 | 89 | 1016.5 |
| 20260507093042 | 42 | 0 | 0.0 | 0.0 | 0.00 | 0.00 | 0.00 | 89 | 1016.5 |
| 20260507091546 | 42 | 0 | 0.0 | 0.0 | 0.00 | 0.00 | 0.00 | 89 | 1016.5 |
| 20260507090055 | 43 | 0 | 0.0 | 0.0 | 0.00 | 0.00 | 0.00 | 89 | 1016.3 |
| 20260507084549 | 43 | 0 | 0.0 | 0.0 | 0.00 | 0.00 | 0.00 | 88 | 1015.9 |
| 20260507083047 | 43 | 0 | 0.0 | 0.0 | 0.00 | 0.00 | 0.00 | 88 | 1015.9 |
| 20260507081552 | 44 | 0 | 0.0 | 0.0 | 0.00 | 0.00 | 0.00 | 88 | 1015.8 |
| 20260507080050 | 44 | 0 | 0.0 | 0.0 | 0.00 | 0.00 | 0.00 | 88 | 1015.8 |
| 20260507074543 | 45 | 0 | 0.0 | 0.0 | 0.00 | 0.04 | 0.00 | 88 | 1015.8 |
| 20260507073048 | 45 | 0 | 0.0 | 0.0 | 0.00 | 0.04 | 0.00 | 88 | 1015.8 |
| 20260507071548 | 45 | 0 | 0.0 | 0.0 | 0.00 | 0.04 | 0.00 | 88 | 1015.7 |
| 20260507070101 | 45 | 0 | 0.0 | 0.0 | 0.00 | 0.04 | 0.00 | 88 | 1015.6 |
| 20260507064550 | 45 | 0 | 0.0 | 0.0 | 0.00 | 0.15 | 0.00 | 88 | 1015.8 |
| 20260507063043 | 45 | 0 | 0.0 | 0.0 | 0.00 | 0.15 | 0.00 | 88 | 1015.7 |
| 20260507061547 | 45 | 0 | 0.0 | 0.0 | 0.00 | 0.15 | 0.00 | 88 | 1015.9 |
| 20260507060045 | 45 | 0 | 0.0 | 0.0 | 0.00 | 0.15 | 0.00 | 87 | 1016.0 |
| 20260507054602 | 46 | 0 | 0.0 | 0.0 | 0.00 | 0.23 | 0.00 | 87 | 1016.0 |
| 20260507053056 | 46 | 0 | 0.0 | 0.0 | 0.00 | 0.23 | 0.00 | 87 | 1016.1 |
| 20260507051555 | 46 | 0 | 0.0 | 0.0 | 0.00 | 0.23 | 0.00 | 87 | 1016.0 |
| 20260507050057 | 46 | 0 | 0.0 | 0.0 | 0.00 | 0.23 | 0.00 | 86 | 1016.0 |
| 20260507044554 | 47 | 0 | 0.0 | 0.0 | 0.00 | 0.54 | 0.00 | 86 | 1015.7 |
| 20260507043050 | 47 | 0 | 0.0 | 0.0 | 0.00 | 0.54 | 0.00 | 86 | 1016.1 |
| 20260507041601 | 47 | 0 | 0.0 | 0.0 | 0.00 | 0.54 | 0.00 | 85 | 1016.0 |
| 20260507040052 | 47 | 0 | 0.0 | 0.0 | 0.00 | 0.54 | 0.00 | 85 | 1016.1 |
| 20260507034549 | 48 | 0 | 0.0 | 0.0 | 0.00 | 0.58 | 0.54 | 85 | 1016.3 |
| 20260507033053 | 48 | 0 | 0.0 | 0.0 | 0.00 | 0.58 | 0.54 | 84 | 1016.3 |
| 20260507031548 | 49 | 0 | 0.0 | 0.0 | 0.00 | 0.58 | 0.54 | 84 | 1016.0 |
| 20260507030051 | 49 | 0 | 0.0 | 0.0 | 0.00 | 0.58 | 0.54 | 83 | 1015.9 |
| 20260507024553 | 50 | 0 | 0.0 | 0.0 | 0.00 | 0.58 | 0.54 | 83 | 1015.9 |
| 20260507023048 | 50 | 0 | 0.0 | 0.0 | 0.00 | 0.58 | 0.54 | 80 | 1015.9 |
| 20260507021559 | 50 | 0 | 0.0 | 0.0 | 0.00 | 0.58 | 0.54 | 81 | 1015.7 |
| 20260507020105 | 51 | 0 | 0.0 | 0.0 | 0.00 | 0.58 | 0.54 | 80 | 1015.4 |
| 20260507014606 | 52 | 0 | 0.0 | 0.0 | 0.00 | 0.58 | 0.54 | 78 | 1015.3 |
| 20260507013047 | 52 | 0 | 0.0 | 0.0 | 0.00 | 0.58 | 0.54 | 77 | 1015.1 |
| 20260507011556 | 53 | 0 | 0.0 | 0.0 | 0.00 | 0.58 | 0.54 | 75 | 1015.3 |
| 20260507010047 | 53 | 0 | 0.0 | 0.0 | 0.00 | 0.58 | 0.54 | 73 | 1015.1 |
| 20260507004546 | 54 | 0 | 0.0 | 0.0 | 0.00 | 0.60 | 0.54 | 73 | 1015.1 |
| 20260507003043 | 55 | 0 | 0.0 | 0.0 | 0.00 | 0.60 | 0.54 | 72 | 1015.0 |
| 20260507001558 | 55 | 0 | 0.0 | 0.0 | 0.00 | 0.60 | 0.54 | 76 | 1014.9 |
| 20260507000057 | 55 | 0 | 0.0 | 0.0 | 0.00 | 0.60 | 0.54 | 73 | 1014.9 |
| 20260506234604 | 56 | 0 | 0.0 | 0.0 | 0.00 | 0.66 | 0.54 | 74 | 1014.5 |
| 20260506233050 | 56 | 0 | 0.0 | 0.0 | 0.00 | 0.66 | 0.54 | 70 | 1014.7 |
| 20260506231543 | 56 | 0 | 0.0 | 0.0 | 0.00 | 0.66 | 0.54 | 70 | 1014.9 |
| 20260506230054 | 57 | 0 | 0.0 | 0.0 | 0.00 | 0.66 | 0.54 | 69 | 1014.8 |
| 20260506224550 | 57 | 0 | 0.0 | 0.0 | 0.00 | 0.78 | 0.54 | 70 | 1014.4 |
| 20260506223045 | 58 | 0 | 0.0 | 0.0 | 0.00 | 0.78 | 0.54 | 68 | 1014.2 |
| 20260506221555 | 58 | 0 | 0.0 | 2.0 | 0.00 | 0.78 | 0.54 | 70 | 1014.1 |
| 20260506220048 | 58 | 0 | 0.0 | 1.0 | 0.00 | 0.78 | 0.54 | 67 | 1014.0 |
| 20260506214544 | 58 | 191 | 0.0 | 1.0 | 0.00 | 0.78 | 0.54 | 66 | 1014.0 |
| 20260506213053 | 58 | 0 | 0.0 | 0.0 | 0.00 | 0.78 | 0.54 | 68 | 1014.2 |
| 20260506211553 | 59 | 0 | 0.0 | 0.0 | 0.00 | 0.78 | 0.54 | 70 | 1014.5 |
| 20260506210048 | 59 | 0 | 0.0 | 0.0 | 0.00 | 0.78 | 0.54 | 71 | 1014.4 |
| 20260506204547 | 60 | 194 | 0.0 | 1.0 | 0.00 | 0.79 | 0.54 | 67 | 1014.5 |
| 20260506203053 | 60 | 200 | 0.0 | 2.0 | 0.00 | 0.79 | 0.54 | 67 | 1014.3 |
| 20260506201543 | 60 | 0 | 0.0 | 4.0 | 0.00 | 0.79 | 0.54 | 67 | 1014.2 |
| 20260506200045 | 59 | 115 | 0.0 | 1.0 | 0.00 | 0.79 | 0.54 | 66 | 1014.4 |
| 20260506194546 | 59 | 151 | 0.0 | 4.0 | 0.00 | 0.93 | 0.54 | 67 | 1014.6 |
| 20260506193052 | 60 | 82 | 1.0 | 5.0 | 0.00 | 0.93 | 0.54 | 65 | 1014.5 |
| 20260506191543 | 60 | 175 | 1.0 | 3.0 | 0.00 | 0.93 | 0.54 | 64 | 1014.1 |
| 20260506190050 | 60 | 121 | 0.0 | 2.0 | 0.00 | 0.93 | 0.54 | 67 | 1014.5 |
| 20260506184547 | 61 | 172 | 1.0 | 4.0 | 0.00 | 1.12 | 0.54 | 64 | 1014.4 |
| 20260506183051 | 62 | 122 | 1.0 | 2.0 | 0.00 | 1.12 | 0.54 | 66 | 1014.1 |
| 20260506181557 | 61 | 195 | 1.0 | 3.0 | 0.00 | 1.12 | 0.54 | 64 | 1014.0 |
| 20260506180044 | 61 | 0 | 1.0 | 5.0 | 0.00 | 1.12 | 0.54 | 66 | 1013.9 |
| 20260506174543 | 61 | 125 | 0.0 | 2.0 | 0.00 | 1.12 | 0.54 | 69 | 1013.8 |
| 20260506173113 | 60 | 61 | 1.0 | 6.0 | 0.00 | 1.12 | 0.54 | 71 | 1014.0 |
| 20260506171547 | 60 | 109 | 0.0 | 1.0 | 0.00 | 1.12 | 0.54 | 69 | 1014.1 |
| 20260506164543 | 59 | 169 | 1.0 | 5.0 | 0.00 | 1.12 | 0.54 | 68 | 1014.4 |
| 20260506163053 | 58 | 165 | 0.0 | 4.0 | 0.00 | 1.12 | 0.54 | 75 | 1014.6 |
| 20260506161546 | 56 | 199 | 1.0 | 5.0 | 0.00 | 1.12 | 0.54 | 76 | 1014.5 |
| 20260506160047 | 55 | 131 | 0.0 | 5.0 | 0.00 | 1.12 | 0.54 | 86 | 1014.6 |
| 20260506154606 | 54 | 150 | 0.0 | 4.0 | 0.00 | 1.12 | 0.54 | 90 | 1014.4 |
| 20260506153041 | 53 | 164 | 0.0 | 3.0 | 0.00 | 1.12 | 0.54 | 90 | 1014.0 |
| 20260506151547 | 52 | 190 | 1.0 | 3.0 | 0.00 | 1.12 | 0.54 | 91 | 1014.1 |
| 20260506150044 | 52 | 0 | 0.0 | 3.0 | 0.00 | 1.12 | 0.54 | 92 | 1014.0 |
| 20260506144551 | 51 | 0 | 0.0 | 2.0 | 0.00 | 1.12 | 0.54 | 92 | 1014.0 |
| 20260506143044 | 49 | 86 | 0.0 | 2.0 | 0.00 | 1.12 | 0.54 | 92 | 1013.9 |
| 20260506141544 | 49 | 153 | 0.0 | 4.0 | 0.00 | 1.12 | 0.54 | 92 | 1013.6 |
| 20260506140043 | 48 | 184 | 0.0 | 2.0 | 0.00 | 1.12 | 0.54 | 93 | 1013.2 |
| 20260506134550 | 47 | 98 | 0.0 | 2.0 | 0.00 | 1.12 | 0.54 | 93 | 1013.0 |
| 20260506133058 | 46 | 207 | 0.0 | 2.0 | 0.00 | 1.12 | 0.54 | 93 | 1013.3 |
| 20260506131545 | 46 | 191 | 0.0 | 2.0 | 0.00 | 1.12 | 0.54 | 93 | 1012.9 |
| 20260506130047 | 46 | 0 | 0.0 | 1.0 | 0.00 | 1.12 | 0.54 | 93 | 1012.9 |